Home   Weather   Bergen   Past weeks

Flag for Norway Past Weather in Bergen, Norway — Yesterday and Last 2 Weeks

Now
64 °F

Mild.


Feels Like: 64 °F
Forecast: 54 / 59 °F
Wind: 8 mph from Southeast

Location: Bergen / Florida

Current Time: Sep 25, 2016 at 7:28:11 AM

Latest Report: Sep 25, 2016 at 6:00 AM


Visibility: N/A

Pressure: 29.84 "Hg

Humidity: 62%

Dew Point: 50 °F

Location of BergenLocation

Past Weather in Bergen — Graph

°F

Bergen Temperature Yesterday

Maximum temperature yesterday: 62 °F (at 4:00 PM)
Minimum temperature yesterday: 53 °F (at 12:00 AM)
Average temperature yesterday: 58 °F

High & Low Weather Summary for the Past Weeks

 TemperatureHumidityPressure
High81 °F (Sep 16, 2:00 PM)92% (Sep 15, 9:00 AM)30.23 "Hg (Sep 15, 9:00 AM)
Low52 °F (Sep 23, 9:00 PM)36% (Sep 16, 2:00 PM)29.68 "Hg (Sep 11, 4:00 AM)
Average62 °F73%30.04 "Hg
* Reported Sep 10 6:00 AM — Sep 25 6:00 AM, Bergen, Weather by CustomWeather, © 2016

Note: Actual official high and low records may vary slightly from our data, if they occured in-between our weather recording intervals... More about our weather records

Advertising

Bergen Weather History for the Previous 24 Hours

Scroll right to see more
 ConditionsComfort  
Time TempWeatherWind HumidityBarometerVisibility
6:00 AM
Sun, Sep 25
64 °FMild.8 mph62%29.84 "HgN/A
5:00 AM63 °FMild.9 mph62%29.86 "HgN/A
4:00 AM63 °FMild.9 mph65%29.86 "HgN/A
3:00 AM62 °FMild.7 mph68%29.88 "HgN/A
2:00 AM62 °FCool.7 mph71%29.89 "HgN/A
1:00 AM62 °FCool.6 mph74%29.89 "HgN/A
12:00 AM60 °FCool.6 mph80%29.90 "HgN/A
11:00 PM
Sat, Sep 24
61 °FOvercast.7 mph75%29.90 "Hg19 mi
10:00 PM61 °FCool.7 mph74%29.90 "HgN/A
9:00 PM60 °FCool.7 mph73%29.90 "HgN/A
8:00 PM61 °FOvercast.9 mph68%29.91 "Hg19 mi
7:00 PM62 °FCool.10 mph61%29.89 "HgN/A
6:00 PM62 °FCool.8 mph61%29.88 "HgN/A
5:00 PM62 °FOvercast.10 mph61%29.90 "Hg22 mi
4:00 PM62 °FCool.10 mph60%29.91 "HgN/A
3:00 PM62 °FCool.10 mph63%29.93 "HgN/A
2:00 PM61 °FOvercast.10 mph63%29.93 "Hg19 mi
1:00 PM60 °FCool.9 mph65%29.95 "HgN/A
12:00 PM59 °FCool.8 mph66%29.96 "HgN/A
11:00 AM59 °FOvercast.7 mph66%29.96 "Hg19 mi
10:00 AM57 °FCool.8 mph69%29.96 "HgN/A
9:00 AM55 °FCool.7 mph74%29.97 "HgN/A
8:00 AM55 °FOvercast.7 mph72%29.97 "Hg16 mi
7:00 AM56 °FCool.7 mph67%29.99 "HgN/A
Weather by CustomWeather, © 2016

See weather overviewHow to use our weather pages